Norfolk, NE

7:55 AM CDT on May 24, 2018 (GMT -0500)
Stefan Memorial

Weather History for KOFK - September, 2013

Change the Weather History Date:

Monday, September 2, 2013

  Actual Average Record
Temperature  
Mean Temperature 67 °F 69 °F  
Max Temperature 82 °F 81 °F 101 °F (1956)
Min Temperature 51 °F 57 °F 40 °F (1974)
Degree Days  
Heating Degree Days 0 1  
Month to date heating degree days 0 2  
Since 1 July heating degree days 16 18  
Cooling Degree Days 2 6  
Month to date cooling degree days 8 12  
Year to date cooling degree days 832 828  
Growing Degree Days 16 (Base 50)    
Moisture  
Dew Point 55 °F    
Average Humidity 71    
Maximum Humidity 100    
Minimum Humidity 42    
Precipitation  
Precipitation 0.00 in 0.09 in 3.88 in (1970)
Month to date precipitation T 0.19  
Year to date precipitation 18.41 20.72  
Snow  
Snow 0.00 in 0.00 in - ()
Month to date snowfall 0.0 0.0  
Since 1 July snowfall 0.0 0.0  
Snow Depth 0.00 in    
Sea Level Pressure  
Sea Level Pressure 30.07 in    
Wind  
Wind Speed 4 mph (East)    
Max Wind Speed 12 mph    
Max Gust Speed 15 mph    
Visibility 7 miles    
Events Fog    
T = Trace of Precipitation, MM = Missing Value Source: NWS Daily Summary

Daily Weather History Graph

Daily Weather History Graph

Search for Another Location

Airport or City:

Astronomy

Sep. 02, 2013 Rise Set
Actual Time 6:56 AM CDT 8:01 PM CDT
Civil Twilight 6:28 AM CDT 8:29 PM CDT
Nautical Twilight 5:53 AM CDT 9:03 PM CDT
Astronomical Twilight 5:17 AM CDT 9:39 PM CDT
Moon 4:13 AM CDT (9/2) 6:16 PM CDT (9/2)
Length of Visible Light 14h 01m
Length of Day
13h 04m
Waning Crescent, 8% of the Moon is Illuminated
Sep 2
Waning Crescent
Sep 5
New
Sep 12
First Quarter
Sep 19
Full
Sep 26
Last Quarter

Hourly Weather History & Observations

Time (CDT) Temp. Heat Index Dew Point Humidity Pressure Visibility Wind Dir Wind Speed Gust Speed Precip Events Conditions
12:56 AM 60.1 °F - 57.0 °F 90% 30.04 in 10.0 mi WNW 4.6 mph - N/A   Clear
1:56 AM 59.0 °F - 55.9 °F 90% 30.05 in 10.0 mi West 3.5 mph - N/A   Clear
2:56 AM 55.0 °F - 54.0 °F 96% 30.05 in 10.0 mi WSW 5.8 mph - N/A   Clear
3:56 AM 57.0 °F - 55.0 °F 93% 30.06 in 9.0 mi Calm Calm - N/A   Clear
4:56 AM 55.9 °F - 54.0 °F 93% 30.06 in 7.0 mi Calm Calm - N/A   Clear
5:29 AM 53.6 °F - 53.6 °F 100% 30.08 in 1.8 mi Calm Calm - N/A   Clear
5:46 AM 55.4 °F - 53.6 °F 94% 30.09 in 3.0 mi Calm Calm - N/A   Clear
5:56 AM 55.0 °F - 54.0 °F 96% 30.07 in 2.5 mi Calm Calm - N/A   Clear
6:09 AM 55.4 °F - 53.6 °F 94% 30.10 in 0.8 mi Calm Calm - N/A   Clear
6:33 AM 53.6 °F - 51.8 °F 94% 30.10 in 0.2 mi Calm Calm - N/A Fog Fog
6:51 AM 53.6 °F - 51.8 °F 94% 30.10 in 0.5 mi Calm Calm - N/A Fog Fog
6:56 AM 51.1 °F - 51.1 °F 100% 30.09 in 0.5 mi Calm Calm - N/A Fog Fog
7:03 AM 51.8 °F - 51.8 °F 100% 30.11 in 1.2 mi Calm Calm - N/A   Partly Cloudy
7:07 AM 53.6 °F - 51.8 °F 94% 30.11 in 3.0 mi Calm Calm - N/A   Partly Cloudy
7:09 AM 51.8 °F - 51.8 °F 100% 30.11 in 1.0 mi Calm Calm - N/A   Clear
7:16 AM 51.8 °F - 51.8 °F 100% 30.11 in 0.8 mi Calm Calm - N/A   Clear
7:20 AM 51.8 °F - 50.0 °F 94% 30.11 in 2.5 mi Calm Calm - N/A   Clear
7:27 AM 51.8 °F - 51.8 °F 100% 30.11 in 6.0 mi Calm Calm - N/A   Clear
7:56 AM 55.0 °F - 55.0 °F 100% 30.11 in 4.0 mi Calm Calm - N/A   Clear
8:56 AM 62.1 °F - 57.9 °F 86% 30.11 in 10.0 mi Calm Calm - N/A   Clear
9:56 AM 68.0 °F - 57.9 °F 70% 30.12 in 10.0 mi Variable 3.5 mph - N/A   Clear
10:56 AM 70.0 °F - 57.9 °F 65% 30.12 in 10.0 mi East 4.6 mph - N/A   Clear
11:56 AM 73.9 °F - 57.9 °F 57% 30.11 in 10.0 mi North 3.5 mph - N/A   Partly Cloudy
12:56 PM 75.9 °F - 57.0 °F 52% 30.09 in 10.0 mi ENE 4.6 mph - N/A   Clear
1:56 PM 77.0 °F - 55.9 °F 48% 30.08 in 10.0 mi Calm Calm - N/A   Partly Cloudy
2:56 PM 79.0 °F - 55.9 °F 45% 30.06 in 10.0 mi North 6.9 mph - N/A   Clear
3:56 PM 79.0 °F - 55.9 °F 45% 30.04 in 10.0 mi ENE 5.8 mph - N/A   Clear
4:56 PM 81.0 °F 80.8 °F 55.9 °F 42% 30.02 in 10.0 mi ENE 8.1 mph - N/A   Clear
5:56 PM 80.1 °F 80.1 °F 55.0 °F 42% 30.02 in 10.0 mi East 4.6 mph - N/A   Clear
6:56 PM 75.9 °F - 55.9 °F 50% 30.03 in 10.0 mi East 6.9 mph - N/A   Clear
7:56 PM 70.0 °F - 55.9 °F 61% 30.03 in 10.0 mi East 6.9 mph - N/A   Clear
8:56 PM 66.0 °F - 55.0 °F 68% 30.04 in 10.0 mi ESE 4.6 mph - N/A   Clear
9:56 PM 63.0 °F - 55.0 °F 75% 30.04 in 10.0 mi SE 4.6 mph - N/A   Clear
10:56 PM 62.1 °F - 54.0 °F 75% 30.04 in 10.0 mi SE 4.6 mph - N/A   Clear
11:56 PM 61.0 °F - 53.1 °F 75% 30.04 in 10.0 mi SE 5.8 mph - N/A   Clear